When you browse on this site, cookies collect data to enhance your experience and personalize the content and advertising you see.
Visit our Privacy Policy to learn more. By continuing to use the site, you agree to this use of cookies and data.
  • In Hungary
  • List of Countries
  • For 7 days
  • Water Temperature
  • Weather Map
  • News
  • Weather Widgets
  • user-avatar
    Login

    Hourly Weather Borzovo

    Today, 26 January, Sunday

    Time Temperature Precipitation Wind Pressure Humidity
    00:00 -4°C° 0 mm 4 mps 733 mmHg 80%
    01:00 -4°C° 0 mm 4 mps 733 mmHg 82%
    02:00 -4°C° 0 mm 3 mps 734 mmHg 84%
    03:00 -5°C° 0 mm 3 mps 734 mmHg 85%
    04:00 -5°C° 0 mm 3 mps 735 mmHg 86%
    05:00 -5°C° 0 mm 3 mps 735 mmHg 87%
    06:00 -5°C° 0 mm 3 mps 735 mmHg 86%
    07:00 -4°C° 0 mm 3 mps 735 mmHg 85%
    08:00 -4°C° 0 mm 3 mps 735 mmHg 85%
    09:00 -4°C° 0 mm 3 mps 735 mmHg 84%
    10:00 -3°C° 0 mm 4 mps 735 mmHg 82%
    11:00 -3°C° 0 mm 4 mps 734 mmHg 80%
    12:00 -2°C° 0.2 mm 5 mps 734 mmHg 85%
    13:00 -2°C° 0.2 mm 5 mps 733 mmHg 90%
    14:00 -3°C° 0.2 mm 6 mps 733 mmHg 94%
    15:00 -2°C° 0.2 mm 6 mps 732 mmHg 92%
    16:00 -1°C° 0.2 mm 6 mps 732 mmHg 91%
    17:00 0°C° 0.2 mm 5 mps 732 mmHg 89%
    18:00 +1°C° 0 mm 6 mps 732 mmHg 88%
    19:00 +1°C° 0 mm 6 mps 732 mmHg 88%
    20:00 +1°C° 0 mm 6 mps 732 mmHg 88%
    21:00 +1°C° 0 mm 5 mps 733 mmHg 89%
    22:00 +1°C° 0 mm 5 mps 733 mmHg 90%
    23:00 +1°C° 0 mm 5 mps 733 mmHg 91%

    Tomorrow, 27 January, Monday

    Time Temperature Precipitation Wind Pressure Humidity
    00:00 0°C° 0 mm 5 mps 734 mmHg 92%
    01:00 0°C° 0 mm 4 mps 734 mmHg 94%
    02:00 0°C° 0 mm 4 mps 734 mmHg 95%
    03:00 +1°C° 0.1 mm 3 mps 735 mmHg 96%
    04:00 +1°C° 0.1 mm 3 mps 735 mmHg 97%
    05:00 +2°C° 0.1 mm 2 mps 735 mmHg 97%
    06:00 +1°C° 0.1 mm 2 mps 735 mmHg 97%
    07:00 +1°C° 0.1 mm 2 mps 736 mmHg 98%
    08:00 +2°C° 0.1 mm 1 mps 736 mmHg 98%
    09:00 +2°C° 0.1 mm 1 mps 736 mmHg 98%
    10:00 +2°C° 0.1 mm 1 mps 736 mmHg 98%
    11:00 +2°C° 0.1 mm 1 mps 736 mmHg 98%
    12:00 +2°C° 0.5 mm 1 mps 736 mmHg 98%
    13:00 +2°C° 0.5 mm 1 mps 736 mmHg 98%
    14:00 +2°C° 0.5 mm 1 mps 736 mmHg 98%
    15:00 +2°C° 0.4 mm 1 mps 736 mmHg 98%
    16:00 +2°C° 0.4 mm 1 mps 736 mmHg 98%
    17:00 +2°C° 0.4 mm 1 mps 736 mmHg 98%
    18:00 +2°C° 0.4 mm 1 mps 735 mmHg 98%
    19:00 +1°C° 0.4 mm 2 mps 735 mmHg 98%
    20:00 +1°C° 0.4 mm 2 mps 735 mmHg 98%
    21:00 +1°C° 0.5 mm 2 mps 735 mmHg 98%
    22:00 +1°C° 0.5 mm 2 mps 735 mmHg 98%
    23:00 +1°C° 0.5 mm 2 mps 735 mmHg 98%

    Day after tomorrow, 28 January, Tuesday

    Time Temperature Precipitation Wind Pressure Humidity
    00:00 +1°C° 0.3 mm 2 mps 734 mmHg 98%
    01:00 +1°C° 0.3 mm 2 mps 734 mmHg 98%
    02:00 +1°C° 0.3 mm 2 mps 734 mmHg 98%
    03:00 -1°C° 0.1 mm 2 mps 733 mmHg 98%
    04:00 -1°C° 0.1 mm 2 mps 733 mmHg 98%
    05:00 +1°C° 0.1 mm 1 mps 733 mmHg 98%
    06:00 -1°C° 0.1 mm 2 mps 733 mmHg 98%
    07:00 -1°C° 0.1 mm 2 mps 733 mmHg 97%
    08:00 -1°C° 0.1 mm 2 mps 733 mmHg 97%
    09:00 -1°C° 0.1 mm 2 mps 733 mmHg 97%
    10:00 -1°C° 0.1 mm 2 mps 733 mmHg 96%
    11:00 -1°C° 0.1 mm 2 mps 733 mmHg 95%
    12:00 -1°C° 0 mm 2 mps 733 mmHg 94%
    13:00 -1°C° 0 mm 2 mps 732 mmHg 93%
    14:00 -1°C° 0 mm 2 mps 732 mmHg 92%
    15:00 -1°C° 0 mm 2 mps 732 mmHg 93%
    16:00 -1°C° 0 mm 2 mps 732 mmHg 94%
    17:00 -1°C° 0 mm 2 mps 732 mmHg 95%
    18:00 -1°C° 0 mm 2 mps 732 mmHg 95%
    19:00 -1°C° 0 mm 2 mps 732 mmHg 95%
    20:00 -1°C° 0 mm 2 mps 732 mmHg 95%
    21:00 -1°C° 0.1 mm 2 mps 732 mmHg 96%
    22:00 -1°C° 0.1 mm 2 mps 732 mmHg 96%
    23:00 -1°C° 0.1 mm 2 mps 732 mmHg 97%

    29 January, Wednesday

    Time Temperature Precipitation Wind Pressure Humidity
    00:00 +1°C° 0.1 mm 2 mps 732 mmHg 97%
    01:00 +1°C° 0.1 mm 2 mps 731 mmHg 97%
    02:00 +1°C° 0.1 mm 2 mps 731 mmHg 97%
    03:00 0°C° 0 mm 3 mps 731 mmHg 96%
    04:00 0°C° 0 mm 3 mps 731 mmHg 96%
    05:00 0°C° 0 mm 3 mps 730 mmHg 95%
    06:00 0°C° 0 mm 3 mps 730 mmHg 94%
    07:00 -1°C° 0 mm 4 mps 730 mmHg 94%
    08:00 -2°C° 0 mm 4 mps 730 mmHg 93%
    09:00 -2°C° 0 mm 4 mps 730 mmHg 92%
    10:00 -2°C° 0 mm 4 mps 730 mmHg 92%
    11:00 -2°C° 0 mm 4 mps 730 mmHg 92%
    12:00 -2°C° 0 mm 4 mps 730 mmHg 91%
    13:00 -2°C° 0 mm 4 mps 730 mmHg 91%
    14:00 -2°C° 0 mm 4 mps 730 mmHg 90%
    15:00 -2°C° 0 mm 4 mps 729 mmHg 90%
    16:00 -2°C° 0 mm 4 mps 729 mmHg 89%
    17:00 -1°C° 0 mm 3 mps 729 mmHg 89%
    18:00 -1°C° 0 mm 3 mps 729 mmHg 89%
    19:00 -2°C° 0 mm 4 mps 729 mmHg 90%
    20:00 -2°C° 0 mm 4 mps 729 mmHg 90%
    21:00 -2°C° 0 mm 4 mps 728 mmHg 91%
    22:00 0°C° 0 mm 3 mps 728 mmHg 92%
    23:00 0°C° 0 mm 3 mps 728 mmHg 93%

    30 January, Thursday

    Time Temperature Precipitation Wind Pressure Humidity
    00:00 0°C° 0 mm 3 mps 728 mmHg 94%
    01:00 -1°C° 0 mm 4 mps 727 mmHg 95%
    02:00 -1°C° 0 mm 4 mps 727 mmHg 96%
    03:00 -2°C° 0.1 mm 4 mps 727 mmHg 96%
    04:00 -2°C° 0.1 mm 4 mps 726 mmHg 95%
    05:00 -2°C° 0.1 mm 4 mps 726 mmHg 95%
    06:00 -2°C° 0 mm 4 mps 726 mmHg 93%
    07:00 -2°C° 0 mm 4 mps 726 mmHg 91%
    08:00 -3°C° 0 mm 4 mps 725 mmHg 90%
    09:00 -3°C° 0 mm 4 mps 725 mmHg 89%
    10:00 -3°C° 0 mm 4 mps 725 mmHg 88%
    11:00 -3°C° 0 mm 4 mps 725 mmHg 88%
    12:00 -3°C° 0.2 mm 4 mps 725 mmHg 89%
    13:00 -2°C° 0.2 mm 3 mps 724 mmHg 90%
    14:00 -2°C° 0.2 mm 3 mps 724 mmHg 92%
    15:00 -2°C° 0.2 mm 3 mps 724 mmHg 92%
    16:00 -2°C° 0.2 mm 3 mps 724 mmHg 93%
    17:00 -4°C° 0.2 mm 3 mps 725 mmHg 93%
    18:00 -3°C° 0.1 mm 2 mps 725 mmHg 93%
    19:00 -3°C° 0.1 mm 2 mps 725 mmHg 94%
    20:00 -3°C° 0.1 mm 2 mps 725 mmHg 94%
    21:00 -4°C° 0.1 mm 2 mps 725 mmHg 94%
    22:00 -2°C° 0.1 mm 1 mps 725 mmHg 94%
    23:00 -2°C° 0.1 mm 1 mps 726 mmHg 94%

    31 January, Friday

    Time Temperature Precipitation Wind Pressure Humidity
    00:00 -2°C° 0.1 mm 1 mps 726 mmHg 94%
    01:00 -2°C° 0.1 mm 1 mps 726 mmHg 94%
    02:00 -2°C° 0.1 mm 1 mps 726 mmHg 94%
    03:00 -2°C° 0 mm 1 mps 726 mmHg 94%
    04:00 -2°C° 0 mm 1 mps 726 mmHg 94%
    05:00 -2°C° 0 mm 1 mps 726 mmHg 94%
    06:00 -2°C° 0.1 mm 1 mps 727 mmHg 94%
    07:00 -2°C° 0.1 mm 1 mps 727 mmHg 94%
    08:00 -2°C° 0.1 mm 1 mps 727 mmHg 94%
    09:00 -2°C° 0 mm 1 mps 727 mmHg 91%
    10:00 -1°C° 0 mm 1 mps 728 mmHg 88%
    11:00 -1°C° 0 mm 1 mps 728 mmHg 85%
    12:00 -1°C° 0 mm 1 mps 728 mmHg 85%
    13:00 -1°C° 0 mm 1 mps 728 mmHg 85%
    14:00 -1°C° 0 mm 1 mps 728 mmHg 84%
    15:00 -1°C° 0 mm 1 mps 729 mmHg 87%
    16:00 -1°C° 0 mm 1 mps 729 mmHg 90%
    17:00 -2°C° 0 mm 1 mps 730 mmHg 93%
    18:00 -2°C° 0 mm 1 mps 730 mmHg 93%
    19:00 -2°C° 0 mm 1 mps 731 mmHg 94%
    20:00 -2°C° 0 mm 1 mps 731 mmHg 94%
    21:00 -3°C° 0 mm 1 mps 732 mmHg 94%
    22:00 -3°C° 0 mm 1 mps 732 mmHg 94%
    23:00 -3°C° 0 mm 1 mps 732 mmHg 94%
    Show more